Location: Lachepaillet
(43.4918°N, 1.4874°W)
Time: 03:39:26
(UTC+00:00)

NOSS 3-3 (C) - Pass Details

Date: 15 May 2026
Orbit: 697 x 1516 km, 63.4° (Epoch: 11 January)

Event Time Altitude Azimuth Distance (km) Brightness Sun altitude
Rises 20:26:56 0° 216° (SW) 3,117 6.6 -10.4°
Reaches altitude 10° 20:29:09 10° 216° (SW) 2,247 5.9 -10.7°
Maximum altitude 20:34:14 87° 305° (NW) 824 3.7 -11.4°
Drops below altitude 10° 20:40:19 10° 36° (NE) 2,663 6.4 -12.2°
Sets 20:43:08 0° 37° (NE) 3,741 7.1 -12.6°
